カタログに戻る

STARLINK-32104

運用中通信VLEO
NORAD 59695·PAYLOAD·🇺🇸 United States

打ち上げ May 8, 2024 から Cape Canaveral Space Force Station

Loading…

次のパス (今後24時間)

TLE

最新Source: CelesTrak SupGP

元期: Sep 15, 2026, 03:11 UTC

1 59695C 24086P   26258.13312500 -.00034282  00000+0 -12418-2 0  2588
2 59695  43.0022  66.7311 0001762 273.4374  34.6063 15.27591348    15

AllMySatでSTARLINK-32104をリアルタイム追跡

Download on the App Store